TimeEST,TemperatureF,Dew PointF,Humidity,Sea Level PressureIn,VisibilityMPH,Wind Direction,Wind SpeedMPH,Gust SpeedMPH,PrecipitationIn,Events,Conditions,WindDirDegrees,DateUTC
12:53 AM,21.9,12.9,68,30.31,10.0,Calm,Calm,-,N/A,,Mostly Cloudy,0,2014-01-01 05:53:00
1:53 AM,25.0,14.0,63,30.33,10.0,WNW,3.5,-,N/A,,Overcast,290,2014-01-01 06:53:00
2:53 AM,26.1,15.1,63,30.35,10.0,NW,6.9,-,N/A,,Overcast,320,2014-01-01 07:53:00
3:53 AM,26.1,16.0,66,30.35,10.0,WNW,5.8,-,N/A,,Overcast,300,2014-01-01 08:53:00
4:53 AM,26.1,15.1,63,30.37,10.0,NNW,3.5,-,N/A,,Overcast,330,2014-01-01 09:53:00
5:53 AM,26.1,16.0,66,30.36,9.0,Variable,3.5,-,N/A,,Overcast,0,2014-01-01 10:53:00
6:53 AM,26.1,17.1,69,30.36,10.0,Calm,Calm,-,N/A,,Overcast,0,2014-01-01 11:53:00
7:53 AM,26.1,19.0,75,30.38,10.0,Calm,Calm,-,N/A,,Overcast,0,2014-01-01 12:53:00
8:53 AM,27.0,19.0,72,30.39,6.0,Calm,Calm,-,N/A,,Haze,0,2014-01-01 13:53:00
9:53 AM,27.0,18.0,69,30.40,10.0,Calm,Calm,-,N/A,,Overcast,0,2014-01-01 14:53:00
10:53 AM,28.0,18.0,66,30.40,10.0,Calm,Calm,-,N/A,,Mostly Cloudy,0,2014-01-01 15:53:00
11:53 AM,28.9,19.0,67,30.36,10.0,ENE,5.8,-,N/A,,Clear,60,2014-01-01 16:53:00
12:53 PM,30.0,19.0,64,30.34,10.0,ENE,5.8,-,N/A,,Scattered Clouds,70,2014-01-01 17:53:00
1:53 PM,30.9,19.9,64,30.31,10.0,NE,5.8,-,N/A,,Clear,40,2014-01-01 18:53:00
2:53 PM,30.9,19.9,64,30.31,10.0,NE,5.8,-,N/A,,Mostly Cloudy,40,2014-01-01 19:53:00
3:53 PM,30.0,19.9,66,30.30,10.0,NNE,5.8,-,N/A,,Clear,30,2014-01-01 20:53:00
4:53 PM,28.9,19.9,69,30.29,10.0,NNE,6.9,-,N/A,,Clear,30,2014-01-01 21:53:00
5:53 PM,28.9,19.9,69,30.29,10.0,North,4.6,-,N/A,,Mostly Cloudy,10,2014-01-01 22:53:00
6:53 PM,28.0,21.0,75,30.29,10.0,North,4.6,-,N/A,,Scattered Clouds,10,2014-01-01 23:53:00
7:53 PM,28.0,21.0,75,30.29,10.0,North,4.6,-,N/A,,Mostly Cloudy,350,2014-01-02 00:53:00
8:53 PM,28.0,21.0,75,30.26,10.0,North,3.5,-,N/A,,Clear,350,2014-01-02 01:53:00
9:53 PM,27.0,21.0,78,30.25,10.0,North,3.5,-,N/A,,Clear,360,2014-01-02 02:53:00
10:53 PM,25.0,21.0,85,30.21,10.0,North,4.6,-,N/A,,Clear,360,2014-01-02 03:53:00
11:53 PM,27.0,21.0,78,30.19,10.0,North,5.8,-,N/A,,Clear,10,2014-01-02 04:53:00